TimeAKST,TemperatureF,Dew PointF,Humidity,Sea Level PressureIn,VisibilityMPH,Wind Direction,Wind SpeedMPH,Gust SpeedMPH,PrecipitationIn,Events,Conditions,WindDirDegrees,DateUTC
12:53 AM,19.0,1.0,46,29.31,10.0,NNE,13.8,20.7,N/A,,Clear,30,2012-12-16 09:53:00
1:53 AM,19.0,3.0,50,29.32,10.0,NNE,10.4,-,N/A,,Clear,20,2012-12-16 10:53:00
3:53 AM,19.0,3.9,52,29.35,10.0,North,8.1,-,N/A,,Clear,10,2012-12-16 12:53:00
4:53 AM,19.0,3.0,50,29.37,10.0,North,6.9,-,N/A,,Clear,360,2012-12-16 13:53:00
5:53 AM,19.0,3.9,52,29.39,10.0,NNE,6.9,-,N/A,,Clear,30,2012-12-16 14:53:00
6:53 AM,19.0,3.0,50,29.41,10.0,Variable,5.8,-,N/A,,Partly Cloudy,0,2012-12-16 15:53:00
7:53 AM,18.0,6.1,60,29.43,10.0,NNE,4.6,-,N/A,,Clear,30,2012-12-16 16:53:00
8:53 AM,18.0,5.0,57,29.45,10.0,NNE,4.6,-,N/A,,Clear,20,2012-12-16 17:53:00
9:53 AM,18.0,1.9,50,29.47,10.0,North,8.1,-,N/A,,Clear,10,2012-12-16 18:53:00
10:53 AM,17.1,1.9,52,29.48,10.0,North,8.1,-,N/A,,Clear,10,2012-12-16 19:53:00
11:53 AM,17.1,1.9,52,29.50,10.0,NNE,4.6,-,N/A,,Clear,20,2012-12-16 20:53:00
12:53 PM,19.0,1.0,46,29.51,10.0,NNE,6.9,-,N/A,,Clear,20,2012-12-16 21:53:00
1:53 PM,19.9,-0.0,42,29.53,10.0,North,6.9,-,N/A,,Clear,10,2012-12-16 22:53:00
2:53 PM,19.9,3.0,48,29.54,10.0,North,10.4,-,N/A,,Clear,10,2012-12-16 23:53:00
3:53 PM,21.0,7.0,55,29.55,10.0,North,10.4,-,N/A,,Clear,10,2012-12-17 00:53:00
4:53 PM,19.9,3.0,48,29.56,10.0,NNE,9.2,-,N/A,,Clear,20,2012-12-17 01:53:00
5:53 PM,19.9,-0.0,42,29.59,10.0,NNE,8.1,-,N/A,,Clear,20,2012-12-17 02:53:00
6:53 PM,15.1,-0.0,51,29.60,10.0,Calm,Calm,-,N/A,,Clear,0,2012-12-17 03:53:00
7:53 PM,15.1,-0.0,51,29.62,10.0,Calm,Calm,-,N/A,,Clear,0,2012-12-17 04:53:00
8:53 PM,16.0,5.0,62,29.63,10.0,NNE,4.6,-,N/A,,Clear,20,2012-12-17 05:53:00
9:53 PM,16.0,3.0,57,29.65,10.0,North,3.5,-,N/A,,Clear,10,2012-12-17 06:53:00
10:53 PM,17.1,1.0,50,29.66,10.0,Calm,Calm,-,N/A,,Clear,0,2012-12-17 07:53:00
11:53 PM,14.0,3.9,64,29.68,10.0,North,3.5,-,N/A,,Clear,360,2012-12-17 08:53:00